New River MCAS, NC

4:19 PM EDT on March 24, 2017 (GMT -0400)
New River Marine Corps Air Station

Weather History for KNCA - July, 2013

Change the Weather History Date:

Wednesday, July 17, 2013

  Actual Average Record
Temperature  
Mean Temperature 83 °F -  
Max Temperature 91 °F 86 °F 95 °F (2002)
Min Temperature 75 °F 69 °F 64 °F (2001)
Cooling Degree Days 18    
Growing Degree Days 33 (Base 50)    
Moisture  
Dew Point 73 °F    
Average Humidity 77    
Maximum Humidity 94    
Minimum Humidity 50    
Precipitation  
Precipitation 0.00 in - - ()
Sea Level Pressure  
Sea Level Pressure 30.18 in    
Wind  
Wind Speed 5 mph (WSW)    
Max Wind Speed 9 mph    
Max Gust Speed 17 mph    
Visibility 9 miles    
Events Thunderstorm    
Averages and records for this station are not official NWS values.
T = Trace of Precipitation, MM = Missing Value Source: NWS Daily Summary

Daily Weather History Graph

Daily Weather History Graph

Search for Another Location

Airport or City:

Trip Planner

Search our weather history database for the weather conditions in past years. The results will help you decide how hot, cold, wet, or windy it might be!

Date:

Astronomy

Jul. 17, 2013 Rise Set
Actual Time 6:09 AM EDT 8:22 PM EDT
Civil Twilight 5:40 AM EDT 8:50 PM EDT
Nautical Twilight 5:05 AM EDT 9:25 PM EDT
Astronomical Twilight 4:27 AM EDT 10:03 PM EDT
Moon 3:12 PM EDT (7/17) 1:10 AM EDT (7/17)
Length of Visible Light 15h 10m
Length of Day
14h 12m
Waxing Gibbous, 67% of the Moon is Illuminated
Jul 17
Waxing Gibbous
Jul 22
Full
Jul 29
Last Quarter
Aug 6
New
Aug 14
First Quarter

Hourly Weather History & Observations

Time (EDT) Temp. Heat Index Dew Point Humidity Pressure Visibility Wind Dir Wind Speed Gust Speed Precip Events Conditions
12:56 AM 77.0 °F - 73.0 °F 88% 30.21 in 10.0 mi SW 5.8 mph - N/A   Clear
2:56 AM 77.0 °F - 72.0 °F 84% 30.21 in 10.0 mi North 9.2 mph 17.3 mph N/A   Mostly Cloudy
3:29 AM 78.8 °F - 71.6 °F 78% 30.19 in 10.0 mi NW 6.9 mph - N/A Thunderstorm Thunderstorm
3:48 AM 75.2 °F - 71.6 °F 89% 30.18 in 10.0 mi Calm Calm - N/A   Clear
3:56 AM 75.9 °F - 72.0 °F 87% 30.19 in 10.0 mi Calm Calm - N/A   Clear
4:56 AM 75.0 °F - 72.0 °F 90% 30.18 in 10.0 mi WSW 3.5 mph - N/A   Clear
5:56 AM 75.0 °F - 72.0 °F 90% 30.19 in 10.0 mi Calm Calm - N/A   Partly Cloudy
6:56 AM 75.0 °F - 73.0 °F 94% 30.20 in 9.0 mi Calm Calm - N/A   Overcast
7:56 AM 78.1 °F - 73.0 °F 84% 30.21 in 10.0 mi West 4.6 mph - N/A   Mostly Cloudy
8:56 AM 82.0 °F 86.7 °F 72.0 °F 71% 30.22 in 10.0 mi North 6.9 mph - N/A   Scattered Clouds
9:56 AM 84.9 °F 90.1 °F 71.1 °F 63% 30.22 in 10.0 mi North 6.9 mph - N/A   Clear
10:56 AM 86.0 °F 93.0 °F 73.0 °F 65% 30.21 in 9.0 mi Variable 5.8 mph - N/A   Partly Cloudy
11:56 AM 88.0 °F 94.7 °F 72.0 °F 59% 30.20 in 10.0 mi NNE 5.8 mph - N/A   Clear
1:56 PM 91.0 °F 97.6 °F 71.1 °F 52% 30.18 in 7.0 mi NE 5.8 mph - N/A   Scattered Clouds
2:56 PM 91.0 °F 96.6 °F 70.0 °F 50% 30.16 in 9.0 mi East 8.1 mph - N/A   Partly Cloudy
3:56 PM 89.1 °F 99.1 °F 75.0 °F 63% 30.15 in 10.0 mi South 8.1 mph - N/A   Partly Cloudy
4:56 PM 86.0 °F 95.1 °F 75.0 °F 70% 30.14 in 9.0 mi South 8.1 mph - N/A   Partly Cloudy
5:56 PM 84.9 °F 94.1 °F 75.9 °F 74% 30.13 in 9.0 mi SSE 5.8 mph - N/A   Clear
6:56 PM 82.9 °F 89.4 °F 73.9 °F 74% 30.14 in 9.0 mi South 4.6 mph - N/A   Scattered Clouds
7:56 PM 81.0 °F 86.2 °F 73.9 °F 79% 30.15 in 9.0 mi South 3.5 mph - N/A   Partly Cloudy
8:56 PM 80.1 °F 84.5 °F 73.9 °F 81% 30.15 in 9.0 mi Calm Calm - N/A   Scattered Clouds
10:56 PM 77.0 °F - 73.9 °F 90% 30.17 in 7.0 mi Calm Calm - N/A   Scattered Clouds
11:56 PM 75.9 °F - 73.9 °F 94% 30.16 in 6.0 mi Calm Calm - N/A   Partly Cloudy